This is the latest recevied weather packets stored in our database for station/object KI5NXU. If no packets are shown the sender has not sent any weather packets the latest 10 day(s).
| Time | Temp. | Humidity | Pressure | Rain* | Wind** | Luminosity | Snow |
|---|---|---|---|---|---|---|---|
| 1777834627 | 26.67° C | 36% | 1017.9 hPa | 0 mm | - | 691 W/m² | - |
| 1777834322 | 26.67° C | 34% | 1018 hPa | 0 mm | - | 714 W/m² | - |
| 1777834017 | 26.67° C | 37% | 1018.2 hPa | 0 mm | - | 719 W/m² | - |
| 1777833714 | 25.56° C | 37% | 1018.2 hPa | 0 mm | - | 705 W/m² | - |
| 1777833410 | 25.56° C | 35% | 1018.4 hPa | 0 mm | - | 710 W/m² | - |
| 1777833108 | 25.56° C | 34% | 1018.2 hPa | 0 mm | - | 720 W/m² | - |
| 1777832806 | 26.11° C | 34% | 1018.4 hPa | 0 mm | - | 734 W/m² | - |
| 1777832504 | 26.67° C | 34% | 1018.7 hPa | 0 mm | - | 720 W/m² | - |
| 1777832200 | 26.11° C | 34% | 1018.6 hPa | 0 mm | - | 717 W/m² | - |
| 1777831897 | 25.56° C | 37% | 1018.8 hPa | 0 mm | - | 746 W/m² | - |
| 1777831594 | 25.56° C | 38% | 1018.9 hPa | 0 mm | - | 754 W/m² | - |
| 1777831292 | 25.56° C | 38% | 1018.8 hPa | 0 mm | - | 738 W/m² | - |
| 1777830989 | 25.56° C | 40% | 1018.9 hPa | 0 mm | - | 749 W/m² | - |
| 1777830686 | 25.56° C | 41% | 1019 hPa | 0 mm | - | 738 W/m² | - |
| 1777830382 | 25.56° C | 41% | 1019.1 hPa | 0 mm | - | 731 W/m² | - |
| 1777830080 | 25° C | 40% | 1019.3 hPa | 0 mm | - | 737 W/m² | - |
| 1777829774 | 25° C | 44% | 1019.2 hPa | 0 mm | - | 745 W/m² | - |
| 1777829471 | 25.56° C | 42% | 1019.3 hPa | 0 mm | - | 740 W/m² | - |
| 1777829168 | 25° C | 43% | 1019.3 hPa | 0 mm | - | 748 W/m² | - |
| 1777828866 | 25° C | 44% | 1019.4 hPa | 0 mm | - | 770 W/m² | - |
| 1777828562 | 24.44° C | 43% | 1019.4 hPa | 0 mm | - | 794 W/m² | - |
| 1777828259 | 25° C | 44% | 1019.4 hPa | 0 mm | - | 794 W/m² | - |
| 1777827955 | 24.44° C | 46% | 1019.4 hPa | 0 mm | - | 787 W/m² | - |
| 1777827653 | 24.44° C | 46% | 1019.7 hPa | 0 mm | - | 794 W/m² | - |
| 1777827350 | 24.44° C | 48% | 1019.7 hPa | 0 mm | - | 807 W/m² | - |
* Rain latest hour (hover to see other rain measurements)
** Current wind speed in m/s (hover to see current wind gust speed)